Location: Unspecified
(0.0000°N, 0.0000°E)
Time: 22:30:39
(UTC+00:00)

S-56A Canister/Altair - Pass Details

Date: 05 December 2023
Orbit: 636 x 2487 km, 38.9° (Epoch: 06 October)

Event Time Altitude Azimuth Distance (km) Brightness Sun altitude
Rises 05:03:10 0° 209° (SSW) 5,844 12.0 -10.9°
Reaches altitude 10° 05:09:02 10° 193° (SSW) 4,533 11.6 -9.6°
Maximum altitude 05:16:37 19° 153° (SSE) 3,353 11.5 -7.8°
Drops below altitude 10° 05:22:40 10° 112° (ESE) 3,524 12.8 -6.4°
Sets 05:26:22 0° 94° (E) 4,175 13.0 -5.6°
